Regional Weather Roundup
Issued by NWS

Home | Current Version | Previous Version | Graphics & Text | Print | Product List | Glossary On
Versions: 1 2 3 4 5 6 7 8 9 10 11 12 13 14 15 16 17 18 19 20 21 22 23 24 25 26 27 28 29 30 31 32 33 34 35 36 37 38 39 40 41 42 43 44 45 46 47 48 49 50
000
ASUS45 KTFX 291019
RWRMT
MONTANA HOURLY WEATHER ROUNDUP
NATIONAL WEATHER SERVICE GREAT FALLS MT
419 AM MDT FRI AUG 29 2014

NOTE: "FAIR" INDICATES FEW OR NO CLOUDS BELOW 12000 FEET WITH NO
SIGNIFICANT WEATHER AND/OR OBSTRUCTIONS TO VISIBILITY.

* THESE STATIONS ARE NOT UNDER NWS QUALITY CONTROL. THEY DO NOT
   REPORT WEATHER SUCH AS PRECIPITATION OR FOG.

MTZ001>007-043-291100-
WEST OF THE DIVIDE
CITY           SKY/WX    TMP DP  RH WIND       PRES   REMARKS
KALISPELL      CLEAR     52  48  86 NW3       30.01F
MISSOULA       CLEAR     55  43  64 CALM      30.04S
BUTTE          CLEAR     48  39  71 SE8       30.14S
MULLAN PASS    MOCLDY    54  37  53 SW7       30.14S
* LINCOLN      N/A       48  46  93 SE1G10     N/A
* LOOKOUT PASS N/A       52  41  66 SE1        N/A
* POLSON       N/A       54  46  74 N/A        N/A
* RONAN APT    CLEAR     50  43  77 N/A        N/A
* SEELEY LAKE  N/A       42  39  89 NE2        N/A
* THOMP F APT  PTCLDY    53  42  66 NE3G9      N/A
$$

MTZ008-052>055-291100-
SOUTHWEST MONTANA
CITY           SKY/WX    TMP DP  RH WIND       PRES   REMARKS
BOZEMAN        CLOUDY    55  46  72 NW7       30.09S
DILLON         PTCLDY    54  45  72 SW8       30.10R
W YELLOWSTONE  MOCLDY    45  45 100 CALM      30.22R
* THREE FORKS  CLOUDY    57  34  42 N/A        N/A
* BOULDER HILL N/A       49  44  83 N8         N/A
* MONIDA PASS  N/A       48  45  89 W4         N/A
* RAYNOLDS PAS N/A       48  32  54 S7         N/A
* WHITEHALL    N/A       58  46  65 N8G17      N/A
* WISE RIVER   N/A       47  38  71 SE4        N/A
$$

MTZ009>010-012-014-046-048-049-054-291100-
EAST SLOPES AND CENTRAL MONTANA
CITY           SKY/WX    TMP DP  RH WIND       PRES   REMARKS
CUT BANK       FOG       46  46 100 NE3       30.08F VSB M1/4
GREAT FALLS    CLEAR     48  48 100 SW6       30.08F
HELENA         CLEAR     54  48  80 W5        30.10F
MALMSTROM AFB  CLEAR     54  50  86 W5        30.10F
* CONRAD       CLEAR     46  46 100 N/A        N/A
* EAST GLACIER N/A       44  44 100 S7         N/A
* MONARCH      N/A       49  44  83 S9G14      N/A
* PENDROY      N/A       47  46  96 E9         N/A
* ROGERS PASS  N/A       47  44  89 NW3        N/A
* SAINT MARY   N/A       42  42 100 SE2        N/A
* SWEET GRASS  N/A       49  49 100 N/A        N/A
* WHITE SULPH  N/A       49  47  93 NW5        N/A
$$

MTZ011-013-016-021-035-040-045-047-050-051-291100-
NORTH CENTRAL MONTANA
CITY           SKY/WX    TMP DP  RH WIND       PRES   REMARKS
HAVRE          CLOUDY    55  52  90 NW5       30.06S
LEWISTOWN      CLOUDY    52  48  86 SW8       30.10F
* CHINOOK      PTCLDY    57  54  90 W5        30.05S
* FORT BENTON  PTCLDY    54  48  80 W9        30.09F
* CHESTER      N/A       50  46  86 E2         N/A
* DENTON       N/A       56  51  83 SW8        N/A
* GEYSER       N/A       52  49  90 S6         N/A
* JUDITH GAP   N/A       51  50  96 N15        N/A
* LOMA         N/A       56  51  83 W6         N/A
$$

MTZ017>020-022>027-061-062-291100-
NORTHEAST MONTANA
CITY           SKY/WX    TMP DP  RH WIND       PRES   REMARKS
GLASGOW        CLOUDY    57  55  93 NW9       29.96R
GLENDIVE       CLOUDY    63  54  73 NW7       29.94R
JORDAN         CLOUDY    57  55  93 W5        29.98F
SIDNEY         CLOUDY    63  54  73 NW6       29.90R
WOLF POINT     LGT RAIN  61  57  87 W10       29.95R
* BEAVER HILL  N/A       60  53  78 N17        N/A
* CIRCLE       N/A       60  57  90 S3         N/A
* LINDSAY DVD  N/A       59  53  81 NW12G18    N/A
* NAVAJO       N/A       56  54  93 N12G17     N/A
$$

MTZ028>042-056>058-291100-
SOUTHCENTRAL AND SOUTHEAST MONTANA
CITY           SKY/WX    TMP DP  RH WIND       PRES   REMARKS
BAKER          PTCLDY    63  55  75 N20G33    29.91R
BILLINGS       CLOUDY    61  54  78 N13       30.09R
LIVINGSTON     CLOUDY    55  46  72 NW10      30.10S
MILES CITY     CLOUDY    64  54  70 N12       29.98R
* LAUREL APT   CLOUDY    61  52  72 N10        N/A
* ROUNDUP APT  CLOUDY    57  48  72 N/A        N/A
* ALZADA       N/A       59  49  70 NW3        N/A
* HYSHAM       N/A       60  54  81 VRB4G11    N/A
* REED POINT   N/A       60  50  70 W1G12      N/A
* ROSCOE HILL  N/A       58  38  47 N12G17     N/A
$$

REGIONAL REPORTS...DAKOTAS
CITY           SKY/WX    TMP DP  RH WIND       PRES   REMARKS
WILLISTON      MOCLDY    63  54  73 N12G23    29.86S
DICKINSON      PTCLDY    63  55  75 NW18      29.84R
BEACH          N/A       59  57  93 N10G20    29.92R
CROSBY         CLEAR     57  57 100 NW10      29.88R
TIOGA          MOCLDY    59  59 100 N12       29.88S
WATFORD CITY   PTCLDY    59  55  87 NW3       29.86S
BISMARCK       CLOUDY    63  63 100 S5        29.80F
GRAND FORKS    CLOUDY    66  64  93 S8        29.77S
FARGO          CLOUDY    66  64  93 CALM      29.77F
BUFFALO SD     CLEAR     61  52  72 W6        29.80S
RAPID CITY     CLEAR     61  52  72 W10       29.89S
$$

REGIONAL REPORTS...WYOMING/IDAHO/WASHINGTON
CITY           SKY/WX    TMP DP  RH WIND       PRES   REMARKS
GILLETTE       MOCLDY    64  48  56 NW17G28   30.01R
SHERIDAN       LGT RAIN  63  52  68 NW12      30.05R
CODY           CLOUDY    57  48  72 S6        30.12F
YELLOWSTONE LA MOCLDY    45  45 100 CALM      30.30S
SALMON         CLEAR     52  45  77 CALM      30.06S
MULLAN PASS    MOCLDY    54  37  53 SW7       30.14S
SAND POINT     CLEAR     50  50 100 CALM      29.97S
SPOKANE        MOCLDY    61  41  48 S7        29.95S
$$

REGIONAL REPORTS...ALBERTA
CITY           SKY/WX    TMP DP  RH WIND       PRES   REMARKS
CALGARY        FOG       45  41  86 S3        30.02F
LETHBRIDGE     CLEAR     46  45  96 SW5       30.05F
MEDICINE HAT   FOG       48  48 100 S6        30.07R
EDMONTON       N/A       39  37  93 S7        29.97F WCI  34
WATERTON GATE  N/A       45  43  93 E2         N/A
CARDSTON       N/A       45  45 100 S2         N/A
MILK RIVER     N/A       50  48  93 S5         N/A
$$

REGIONAL REPORTS...SASKATCHEWAN
CITY           SKY/WX    TMP DP  RH WIND       PRES   REMARKS
SWIFT CURRENT  CLEAR     50  50 100 W9        30.01R
MOOSE JAW      CLOUDY    55  55 100 NW6       29.96R
REGINA         LGT RAIN  55  54  96 N7        29.94R
VAL MARIE      N/A       54  52  93 NW9        N/A
ASSINIBOIA     N/A       55  52  90 N8         N/A
CORONACH       N/A       55  54  96 N9         N/A

$$



USA.gov is the U.S. government's official web portal to all federal, state and local government web resources and services.